Location: Kelowna
(49.8880°N, 119.4960°W)
Time: 21:00:13
(UTC-07:00)

VELOX 1 - Visible Passes

Search period start: 15 April 2024 00:00
Search period end: 25 April 2024 00:00
Orbit: 607 x 619 km, 98.4° (Epoch: 15 April)

Date Brightness Start Highest point End Pass type
(mag) Time Alt. Az. Time Alt. Az. Time Alt. Az.
15 Apr ? 21:00:37 10° NNE 21:04:56 71° ESE 21:09:15 10° S visible
15 Apr ? 22:37:39 10° NNW 22:40:22 17° WNW 22:43:06 10° W visible
16 Apr ? 21:15:45 10° NNE 21:20:06 83° WNW 21:24:26 10° SSW visible
16 Apr ? 22:53:27 10° NNW 22:55:20 13° NW 22:57:13 10° W visible
17 Apr ? 21:30:56 10° N 21:35:13 60° WNW 21:39:28 10° SSW visible
18 Apr ? 21:46:10 10° N 21:50:16 43° WNW 21:54:22 10° SW visible
19 Apr ? 20:25:30 10° NNE 20:29:23 31° E 20:33:15 10° SSE visible
19 Apr ? 22:01:26 10° N 22:05:17 32° WNW 22:09:08 10° SW visible
20 Apr ? 20:40:24 10° NNE 20:44:33 43° E 20:48:41 10° S visible
20 Apr ? 22:16:45 10° N 22:20:16 24° WNW 22:23:46 10° WSW visible
21 Apr ? 20:55:23 10° NNE 20:59:41 61° ESE 21:03:57 10° S visible
21 Apr ? 22:32:11 10° NNW 22:35:12 19° WNW 22:38:12 10° WSW visible
22 Apr ? 21:10:24 10° NNE 21:14:46 85° ESE 21:19:05 10° SSW visible
22 Apr ? 22:47:45 10° NNW 22:50:04 14° NW 22:52:24 10° W visible
23 Apr ? 21:25:29 10° N 21:29:48 70° WNW 21:34:06 10° SSW visible
23 Apr ? 23:03:47 10° NW 23:04:56 11° NW 23:06:04 10° WNW visible
24 Apr ? 21:40:35 10° N 21:44:48 50° WNW 21:48:58 10° SW visible
